Weather History for Tracy, MN

Change the Weather History Date:

Saturday, October 1, 2011

  Actual Average (KMML) Record (KMML)
Temperature  
Mean Temperature 52 °F -  
Max Temperature 69 °F 71 °F 90 °F (1992)
Min Temperature 36 °F 42 °F 24 °F (2003)
Degree Days  
Heating Degree Days 12    
Growing Degree Days 2 (Base 50)    
Moisture  
Dew Point 32 °F    
Average Humidity 51    
Maximum Humidity 79    
Minimum Humidity 25    
Precipitation  
Precipitation 0.00 in - - ()
Sea Level Pressure  
Sea Level Pressure 30.23 in    
Wind  
Wind Speed 9 mph (South)    
Max Wind Speed 18 mph    
Max Gust Speed 23 mph    
Visibility 10 miles    
Events      
Averages and records for this station are not official NWS values.
T = Trace of Precipitation, MM = Missing Value Source: NWS Daily Summary

Daily Weather History Graph

Daily Weather History Graph

Search for Another Location

Airport:

Trip Planner

Search our weather history database for the weather conditions in past years. The results will help you decide how hot, cold, wet, or windy it might be!

Date:

Astronomy

Oct. 01, 2011 Rise Set
Actual Time 7:19 AM CDT 7:03 PM CDT
Civil Twilight 6:51 AM CDT 7:32 PM CDT
Nautical Twilight 6:17 AM CDT 8:06 PM CDT
Astronomical Twilight 5:43 AM CDT 8:40 PM CDT
Moon 12:40 PM CDT (10/1) 9:49 PM CDT (10/1)
Length of Visible Light 12h 41m
Length of Day
11h 43m
Waxing Crescent, 24% of the Moon is Illuminated
Oct 1
Waxing Crescent
Oct 3
First Quarter
Oct 11
Full
Oct 19
Last Quarter
Oct 26
New

Hourly Weather History & Observations

Time (CDT) Temp. Windchill Dew Point Humidity Pressure Visibility Wind Dir Wind Speed Gust Speed Precip Events Conditions
12:14 AM 43.7 °F 40.3 °F 29.8 °F 58% 30.25 in 10.0 mi SSE 5.8 mph - N/A   Clear
12:33 AM 43.0 °F 38.8 °F 30.0 °F 60% 30.25 in 10.0 mi SSE 6.9 mph - N/A   Clear
12:54 AM 43.2 °F 39.0 °F 29.8 °F 59% 30.25 in 10.0 mi SSE 6.9 mph - N/A   Clear
1:14 AM 43.7 °F 39.1 °F 30.2 °F 59% 30.25 in 10.0 mi SE 8.1 mph - N/A   Clear
1:33 AM 43.2 °F 39.7 °F 30.2 °F 60% 30.25 in 10.0 mi SSE 5.8 mph - N/A   Clear
1:54 AM 41.9 °F 37.5 °F 29.8 °F 62% 30.26 in 10.0 mi South 6.9 mph - N/A   Clear
2:14 AM 41.5 °F 37.1 °F 30.0 °F 64% 30.26 in 10.0 mi SSE 6.9 mph - N/A   Clear
2:34 AM 41.0 °F 37.1 °F 30.0 °F 65% 30.26 in 10.0 mi South 5.8 mph - N/A   Clear
2:54 AM 40.5 °F 35.8 °F 30.0 °F 66% 30.26 in 10.0 mi SSE 6.9 mph - N/A   Clear
3:13 AM 39.2 °F 34.2 °F 29.8 °F 69% 30.26 in 10.0 mi South 6.9 mph - N/A   Clear
3:34 AM 38.3 °F 33.2 °F 29.7 °F 71% 30.26 in 10.0 mi SSE 6.9 mph - N/A   Clear
3:54 AM 37.6 °F 33.1 °F 29.5 °F 73% 30.26 in 10.0 mi SSE 5.8 mph - N/A   Clear
4:13 AM 36.9 °F 32.2 °F 30.0 °F 76% 30.26 in 10.0 mi SSE 5.8 mph - N/A   Clear
4:34 AM 36.9 °F 31.4 °F 30.2 °F 77% 30.26 in 10.0 mi SSE 6.9 mph - N/A   Clear
4:54 AM 37.2 °F 31.2 °F 31.1 °F 79% 30.27 in 10.0 mi SSE 8.1 mph - N/A   Clear
5:14 AM 37.8 °F 31.8 °F 31.6 °F 79% 30.27 in 10.0 mi South 8.1 mph - N/A   Clear
5:33 AM 38.3 °F 31.4 °F 32.0 °F 78% 30.27 in 10.0 mi South 10.4 mph - N/A   Clear
5:54 AM 38.7 °F 31.8 °F 32.0 °F 77% 30.26 in 10.0 mi South 10.4 mph - N/A   Clear
6:14 AM 38.7 °F 30.5 °F 32.0 °F 77% 30.26 in 10.0 mi South 13.8 mph - N/A   Clear
6:34 AM 39.0 °F 31.8 °F 32.4 °F 77% 30.27 in 10.0 mi South 11.5 mph - N/A   Clear
6:54 AM 39.6 °F 32.5 °F 32.9 °F 77% 30.27 in 10.0 mi South 11.5 mph - N/A   Clear
7:14 AM 39.7 °F 32.7 °F 33.3 °F 78% 30.27 in 10.0 mi South 11.5 mph - N/A   Clear
7:34 AM 38.8 °F 31.6 °F 32.7 °F 79% 30.28 in 10.0 mi South 11.5 mph 16.1 mph N/A   Clear
7:53 AM 39.2 °F 32.5 °F 32.5 °F 77% 30.28 in 10.0 mi South 10.4 mph - N/A   Clear
8:14 AM 40.5 °F 32.8 °F 32.9 °F 74% 30.28 in 10.0 mi South 13.8 mph - N/A   Clear
8:33 AM 41.9 °F 34.3 °F 33.3 °F 71% 30.28 in 10.0 mi South 15.0 mph 20.7 mph N/A   Clear
8:53 AM 43.3 °F 36.5 °F 33.8 °F 69% 30.28 in 10.0 mi South 13.8 mph 19.6 mph N/A   Clear
9:14 AM 45.3 °F 39.0 °F 34.3 °F 65% 30.28 in 10.0 mi South 13.8 mph 20.7 mph N/A   Clear
9:34 AM 46.8 °F - 34.7 °F 63% 30.28 in 10.0 mi South 13.8 mph 20.7 mph N/A   Clear
9:54 AM 48.9 °F - 35.4 °F 60% 30.29 in 10.0 mi South 15.0 mph 23.0 mph N/A   Clear
10:14 AM 51.1 °F - 35.6 °F 55% 30.29 in 10.0 mi SSW 13.8 mph 21.9 mph N/A   Clear
10:33 AM 53.1 °F - 36.0 °F 52% 30.29 in 10.0 mi SSW 18.4 mph 23.0 mph N/A   Clear
10:54 AM 54.9 °F - 35.1 °F 47% 30.29 in 10.0 mi SSW 15.0 mph 19.6 mph N/A   Clear
11:14 AM 57.2 °F - 34.0 °F 42% 30.29 in 10.0 mi South 13.8 mph 18.4 mph N/A   Clear
11:33 AM 58.3 °F - 33.6 °F 39% 30.28 in 10.0 mi South 13.8 mph 18.4 mph N/A   Clear
11:54 AM 59.9 °F - 33.3 °F 37% 30.27 in 10.0 mi South 13.8 mph 19.6 mph N/A   Clear
12:13 PM 61.7 °F - 32.5 °F 33% 30.27 in 10.0 mi South 9.2 mph 18.4 mph N/A   Clear
12:34 PM 62.8 °F - 32.9 °F 33% 30.26 in 10.0 mi South 13.8 mph 20.7 mph N/A   Clear
1:14 PM 64.4 °F - 32.7 °F 31% 30.25 in 10.0 mi South 11.5 mph 18.4 mph N/A   Clear
1:33 PM 65.5 °F - 32.9 °F 30% 30.23 in 10.0 mi South 12.7 mph - N/A   Clear
1:54 PM 66.4 °F - 33.4 °F 29% 30.23 in 10.0 mi South 11.5 mph 17.3 mph N/A   Clear
2:14 PM 66.9 °F - 33.1 °F 28% 30.22 in 10.0 mi South 11.5 mph 17.3 mph N/A   Clear
2:33 PM 67.5 °F - 32.7 °F 28% 30.21 in 10.0 mi South 9.2 mph 18.4 mph N/A   Clear
2:54 PM 68.4 °F - 32.2 °F 26% 30.20 in 10.0 mi South 15.0 mph 23.0 mph N/A   Clear
3:33 PM 69.1 °F - 32.0 °F 25% 30.19 in 10.0 mi South 13.8 mph 20.7 mph N/A   Clear
3:54 PM 69.3 °F - 32.0 °F 25% 30.19 in 10.0 mi South 13.8 mph 17.3 mph N/A   Clear
4:14 PM 69.6 °F - 32.0 °F 25% 30.18 in 10.0 mi South 11.5 mph - N/A   Clear
4:34 PM 69.6 °F - 32.0 °F 25% 30.18 in 10.0 mi South 12.7 mph 17.3 mph N/A   Clear
5:13 PM 68.9 °F - 31.6 °F 25% 30.17 in 10.0 mi South 11.5 mph - N/A   Clear
5:34 PM 68.7 °F - 31.8 °F 25% 30.17 in 10.0 mi South 9.2 mph - N/A   Clear
5:54 PM 68.2 °F - 31.8 °F 26% 30.16 in 10.0 mi South 11.5 mph - N/A   Clear
6:13 PM 67.1 °F - 31.8 °F 27% 30.16 in 10.0 mi South 10.4 mph - N/A   Clear
6:34 PM 65.5 °F - 31.6 °F 28% 30.16 in 10.0 mi SSE 6.9 mph - N/A   Clear
6:54 PM 63.0 °F - 31.3 °F 30% 30.16 in 10.0 mi SSE 5.8 mph - N/A   Clear
7:14 PM 60.6 °F - 31.1 °F 33% 30.16 in 10.0 mi South 6.9 mph - N/A   Clear
7:34 PM 59.5 °F - 30.9 °F 34% 30.16 in 10.0 mi South 6.9 mph - N/A   Clear
7:54 PM 57.7 °F - 31.1 °F 36% 30.16 in 10.0 mi South 6.9 mph - N/A   Clear
8:14 PM 57.2 °F - 31.1 °F 37% 30.15 in 10.0 mi South 8.1 mph - N/A   Clear
8:33 PM 57.2 °F - 30.7 °F 37% 30.15 in 10.0 mi South 10.4 mph - N/A   Clear
8:54 PM 56.3 °F - 30.7 °F 38% 30.15 in 10.0 mi South 9.2 mph - N/A   Clear
9:14 PM 56.3 °F - 30.6 °F 38% 30.15 in 10.0 mi South 9.2 mph - N/A   Clear
9:33 PM 56.5 °F - 30.2 °F 37% 30.14 in 10.0 mi South 10.4 mph - N/A   Clear
9:54 PM 57.0 °F - 30.0 °F 36% 30.14 in 10.0 mi South 12.7 mph 19.6 mph N/A   Clear
10:14 PM 55.6 °F - 30.6 °F 39% 30.14 in 10.0 mi South 10.4 mph 16.1 mph N/A   Clear
10:34 PM 55.0 °F - 30.6 °F 39% 30.14 in 10.0 mi South 12.7 mph 18.4 mph N/A   Clear
11:14 PM 53.8 °F - 31.1 °F 42% 30.15 in 10.0 mi South 10.4 mph 16.1 mph N/A   Clear
11:34 PM 53.8 °F - 31.3 °F 42% 30.14 in 10.0 mi South 11.5 mph 17.3 mph N/A   Clear
11:53 PM 53.6 °F - 31.8 °F 44% 30.15 in 10.0 mi South 10.4 mph - N/A   Clear